Theta_e
301 301 301 301 301 301 301 301 300 300 300 300 301 300 301 301 301 300 298 304 297 291 292 293 293 290 290 289 287 289 287 289 287 281 281 281 280 282 281 283 281 280 278 278 280 276 274 291 289 282 287 292 292 293
301 300 300 300 300 300 300 300 300 299 299 299 299 299 299 300 300 299 294 301 302 294 291 296 296 297 295 294 291 291 288 288 289 285 285 285 282 284 282 277 286 279 283 281 281 281 289 291 290 293 294 292 293 294
300 300 300 300 299 300 300 300 300 299 299 299 299 298 299 299 299 298 295 298 296 292 290 291 289 295 298 298 299 289 290 292 290 293 288 285 280 284 278 280 282 285 288 283 283 286 287 290 292 293 293 294 295 295
300 300 299 299 299 299 299 299 299 299 299 299 298 298 297 297 298 298 294 297 294 290 283 288 296 292 297 299 297 296 294 295 294 292 288 284 281 287 282 284 282 285 286 284 284 287 289 290 292 294 294 295 295 296
299 299 299 299 299 298 299 299 299 299 299 298 298 297 297 297 296 296 296 296 297 289 284 285 291 294 295 295 294 294 294 291 290 287 285 282 286 285 286 286 283 287 285 283 282 289 289 290 294 295 294 295 296 295
299 299 299 298 298 298 298 298 298 299 298 298 298 297 297 297 297 296 287 295 298 295 287 281 292 291 293 294 293 292 292 292 291 288 285 287 289 286 281 280 287 289 290 292 289 293 293 295 295 296 295 295 295 295
298 299 298 298 298 298 297 298 298 298 298 298 298 298 298 298 298 290 288 293 299 297 287 282 285 292 294 293 292 291 292 291 290 288 286 285 287 287 284 280 287 289 290 291 294 294 291 293 292 294 294 294 295 295
298 298 298 297 297 297 297 297 297 298 298 297 298 298 298 298 296 290 295 297 298 290 289 281 282 286 294 288 285 291 288 288 288 286 287 285 287 287 280 285 288 290 292 293 294 294 293 293 293 293 294 293 291 290
297 297 297 296 297 297 297 297 297 297 297 297 296 296 293 291 288 290 297 296 297 291 283 283 280 282 293 290 290 288 289 282 288 283 283 285 282 280 285 287 289 292 291 291 293 293 292 291 291 291 291 290 288 288
297 296 296 296 296 296 297 297 296 296 296 295 293 288 283 289 297 297 291 287 287 288 287 281 287 283 289 289 287 287 287 283 281 285 289 283 283 288 290 292 293 293 294 294 291 289 289 288 289 289 289 290 289 288
296 296 296 296 296 296 296 295 295 296 295 291 287 287 293 296 290 288 282 281 282 280 283 284 284 283 290 285 285 289 285 286 280 285 284 283 283 290 293 293 294 295 295 294 294 293 292 290 289 288 288 288 288 287
296 296 296 296 296 296 295 295 295 293 291 291 292 293 291 287 284 281 280 282 280 278 284 283 285 286 288 290 285 286 282 284 278 290 284 280 290 292 293 293 294 295 295 294 294 293 292 291 290 289 288 287 286 286
296 296 296 295 295 295 295 295 295 295 295 293 288 284 284 283 277 276 275 278 280 284 287 287 285 287 288 289 285 284 280 280 288 283 280 285 291 292 292 293 294 295 295 294 292 293 292 291 289 288 287 287 286 285
295 295 295 295 295 295 295 295 295 294 291 284 281 276 278 277 279 280 281 284 289 290 289 289 287 286 287 284 284 280 283 285 279 278 280 288 290 291 292 294 293 293 293 292 291 291 289 288 286 286 286 286 285 285
294 295 295 294 294 294 294 294 294 293 288 281 281 276 278 283 285 286 288 288 290 293 290 288 288 287 284 283 284 283 280 278 280 281 286 290 290 291 291 292 293 293 290 292 293 290 285 286 286 286 286 286 286 285
294 294 292 294 294 294 294 294 291 290 286 284 282 279 283 282 284 285 285 286 291 290 291 289 284 282 282 283 280 279 278 277 282 287 288 290 289 289 290 291 292 293 292 292 292 291 290 287 287 287 288 287 286 285
292 288 294 294 294 294 293 288 288 284 282 280 280 286 284 284 285 286 285 287 291 288 283 284 279 279 284 280 279 282 280 282 285 286 288 289 288 289 290 291 291 292 292 293 292 291 289 289 289 288 287 289 287 286
290 293 293 293 293 291 286 288 285 282 278 281 280 283 284 285 285 286 287 289 287 285 285 282 285 280 279 277 279 283 286 287 287 288 288 288 288 289 289 288 290 291 291 291 292 289 289 288 289 288 288 288 289 287
291 292 293 293 290 288 284 284 286 279 280 283 283 285 284 285 287 287 288 288 288 288 285 283 280 278 279 283 283 286 287 287 285 286 288 288 289 289 289 289 289 289 289 290 291 291 291 290 289 291 288 288 287 288
292 292 292 292 291 285 281 282 287 282 279 282 284 282 282 283 286 287 286 286 284 283 280 279 279 282 283 286 288 287 287 287 286 284 285 287 288 287 287 287 287 288 288 289 290 288 292 290 291 291 289 288 288 288
290 290 292 290 287 287 284 282 281 282 283 280 282 281 281 283 282 282 282 285 283 281 279 283 285 287 289 289 289 288 287 286 284 284 283 283 286 286 286 287 288 288 288 289 289 289 289 290 291 290 290 288 289 287
287 289 287 288 285 283 283 285 282 282 280 280 280 281 279 279 280 282 284 281 280 282 284 285 285 286 286 285 285 286 286 285 285 286 284 285 284 285 285 287 286 286 287 288 288 288 289 291 290 290 287 286 288 287
289 288 285 283 279 279 278 284 278 279 276 277 279 277 278 279 281 284 278 280 282 286 286 285 285 285 284 284 285 285 285 284 283 284 284 284 285 285 285 286 286 285 285 287 289 289 289 289 289 287 288 289 287 287
290 282 279 278 278 275 279 277 279 278 278 276 275 274 276 278 281 278 276 279 283 285 283 283 283 282 283 283 282 283 283 284 283 283 283 282 281 282 283 283 284 284 285 287 288 289 289 289 287 287 286 286 286 285
277 276 278 274 278 275 273 274 275 275 273 275 274 274 276 279 275 275 275 279 282 283 283 282 282 282 280 280 281 282 283 282 280 279 281 282 281 281 281 282 283 284 285 285 285 286 287 286 286 286 286 285 285 285
272 275 274 275 275 273 273 271 272 273 274 273 274 277 278 276 273 272 277 281 281 281 281 281 280 279 279 280 279 279 280 281 280 278 279 281 280 279 278 277 278 279 284 284 284 284 285 286 286 285 285 285 285 285
271 273 277 281 278 277 275 277 277 275 273 272 274 275 275 271 271 276 279 281 280 281 281 281 280 279 278 279 280 280 280 280 279 279 281 281 281 281 280 278 277 280 282 282 283 284 282 284 286 285 285 286 286 285
275 276 272 276 276 278 273 274 274 273 275 277 277 273 272 272 273 278 279 280 281 281 280 281 281 280 279 279 279 280 279 280 280 280 280 280 281 282 281 281 281 281 282 282 282 282 282 281 285 285 285 285 285 286
275 277 277 273 275 275 276 275 275 278 279 278 275 274 275 278 279 279 279 280 281 280 279 278 279 280 279 280 280 280 280 279 276 272 272 272 274 276 279 278 278 278 279 280 283 282 282 281 283 286 286 285 285 285
275 279 275 273 271 271 276 279 278 281 281 281 280 278 278 279 279 280 279 279 278 278 278 277 278 278 276 276 276 277 279 279 278 275 272 271 272 275 276 276 276 277 279 281 283 283 283 282 284 285 285 284 284 284
278 277 274 274 273 276 279 280 281 280 280 279 280 277 277 278 278 279 279 279 278 277 277 277 276 277 276 275 274 274 273 277 276 276 275 275 275 275 275 275 277 278 279 281 283 282 284 285 285 284 284 284 284 284
275 273 273 270 273 278 279 277 277 276 277 276 276 278 276 275 273 276 278 277 276 276 275 275 274 274 276 277 277 277 276 276 275 274 274 274 274 274 275 277 278 278 280 281 284 285 285 285 285 284 284 284 283 284
274 274 273 272 272 271 275 275 273 273 275 274 275 276 276 275 272 274 277 278 276 275 275 275 275 276 276 277 276 276 275 274 274 275 275 274 274 276 277 282 285 285 285 285 285 285 285 285 285 285 284 284 284 284
Wind_Speed
29 27 27 25 24 23 23 23 22 21 19 18 16 15 14 14 11 8 5 8 6 4 10 14 14 11 9 8 7 5 4 5 3 4 4 3 5 5 7 11 10 9 6 7 8 8 9 10 13 11 13 16 15 15
30 28 27 26 24 24 22 23 23 22 20 18 18 15 15 14 13 8 6 6 6 4 5 9 12 13 16 18 11 7 6 4 4 4 2 3 5 5 11 11 13 12 10 6 7 9 18 21 14 14 14 14 15 15
30 29 28 26 25 23 23 23 23 22 21 18 17 17 17 16 15 11 8 2 3 3 9 12 14 18 18 18 13 9 9 10 12 8 4 3 6 8 10 10 14 14 15 9 14 12 17 20 18 17 17 15 16 16
30 28 28 27 24 23 22 21 23 22 21 20 18 17 15 14 14 13 8 4 3 2 4 4 4 6 10 11 16 14 13 10 8 4 4 4 6 7 10 14 16 12 15 14 17 18 18 16 17 16 17 17 18 17
30 28 27 26 24 23 22 22 24 23 22 21 21 19 18 17 15 9 6 4 6 6 3 6 14 16 12 9 10 10 12 11 6 4 5 7 8 8 8 13 14 13 17 9 12 17 17 16 17 19 17 16 17 18
28 28 27 25 24 22 22 22 24 24 21 21 21 20 19 18 17 4 3 7 7 5 2 4 4 7 5 7 11 11 9 8 5 4 4 7 16 10 6 10 15 16 16 14 13 16 16 20 17 17 17 18 17 16
29 28 26 25 24 22 22 22 23 24 23 20 19 19 18 17 9 1 0 2 12 4 2 4 4 5 4 7 3 2 3 1 3 2 6 10 10 4 5 14 24 18 18 18 14 10 12 13 13 16 17 18 18 17
29 27 26 25 24 23 22 22 24 24 23 20 18 16 16 17 10 1 5 10 8 3 3 4 4 4 11 4 3 3 4 3 4 4 3 6 7 6 8 15 16 16 5 15 15 9 13 14 15 16 15 17 19 16
28 27 26 24 24 24 23 23 24 24 24 23 22 19 7 3 3 3 16 12 4 2 3 5 4 3 7 5 4 5 5 5 5 7 6 6 6 10 12 14 17 9 8 9 11 12 13 14 14 15 16 17 16 15
28 27 25 25 25 24 25 28 28 27 26 25 14 4 4 5 17 17 4 4 5 5 5 5 8 6 7 6 6 5 5 5 4 9 5 6 10 17 19 17 13 10 3 9 10 12 13 12 13 14 15 13 14 14
29 27 26 27 26 29 30 30 28 28 27 7 7 4 7 19 6 4 5 6 6 5 7 6 11 9 7 5 3 5 3 4 4 5 7 6 6 9 15 13 12 3 6 7 7 7 8 8 9 10 12 14 13 14
29 27 28 28 30 31 31 31 31 13 9 7 8 9 7 5 5 7 7 6 8 7 8 9 7 9 4 2 3 4 4 4 6 2 4 4 2 5 5 1 9 7 6 6 8 8 8 7 7 11 11 12 12 13
29 29 30 31 31 31 31 30 29 16 13 10 4 7 6 7 8 8 10 6 6 6 6 8 8 6 4 4 3 4 5 6 4 3 4 3 6 10 8 4 5 3 5 8 10 10 9 9 9 8 10 10 11 10
30 29 29 29 29 29 30 31 23 18 8 4 6 8 7 7 7 7 8 7 5 4 9 9 8 4 4 6 5 5 6 4 4 5 7 4 7 8 7 1 3 6 6 6 7 6 5 3 4 4 6 7 9 9
30 29 28 28 29 29 29 28 22 6 2 4 4 6 8 6 5 1 4 1 2 4 5 6 4 5 5 5 6 6 4 5 5 4 6 5 6 6 8 8 8 8 4 5 8 5 3 5 3 3 5 4 7 7
29 28 15 29 28 28 29 23 5 2 1 2 6 5 3 6 5 1 2 4 3 1 3 3 3 3 5 4 6 7 5 4 5 5 5 6 8 9 8 8 7 4 5 5 6 8 6 4 5 7 5 2 5 5
19 3 29 28 28 28 24 4 3 4 5 4 4 3 2 2 0 5 6 6 4 5 5 3 5 7 4 4 5 3 4 4 3 4 5 8 9 9 9 9 7 9 9 7 5 7 10 7 6 7 7 1 2 4
6 20 30 29 23 19 3 3 4 6 7 6 5 5 4 1 1 2 3 4 4 4 5 4 3 4 4 5 4 4 3 3 2 1 1 3 6 7 7 11 11 9 9 10 4 5 8 9 8 5 6 2 2 3
19 19 30 29 12 4 4 3 2 5 6 5 4 5 4 4 5 4 3 5 3 5 2 3 5 4 7 6 7 7 5 3 2 5 5 7 8 9 10 11 10 11 11 12 12 8 3 5 8 7 4 1 2 3
28 29 30 21 6 2 3 3 5 3 3 4 5 6 5 6 5 4 4 5 6 6 6 5 8 7 7 7 5 3 4 5 6 6 6 6 7 11 11 11 8 12 12 12 11 9 5 4 5 6 3 1 3 3
13 15 21 5 3 3 2 4 5 4 3 3 5 5 4 5 5 5 6 6 6 7 9 7 7 6 8 6 6 5 6 7 7 7 9 8 8 9 10 9 11 9 9 9 8 8 4 4 4 5 2 2 0 4
5 11 3 3 2 1 2 2 4 4 3 2 4 5 4 5 6 6 6 7 8 7 7 6 6 5 5 6 6 7 7 9 9 7 8 9 8 8 8 9 10 10 9 9 9 9 9 6 3 3 2 2 1 3
11 3 4 3 2 2 1 3 4 5 4 3 4 4 4 3 2 1 3 4 6 5 2 1 4 5 4 6 8 8 9 9 7 8 8 8 8 8 9 9 9 10 10 10 9 9 9 7 3 3 2 3 1 1
5 3 3 3 2 3 2 2 2 2 3 5 4 4 2 3 3 3 5 7 1 6 4 4 2 2 3 5 5 6 6 6 7 8 7 8 9 9 9 10 10 10 11 11 10 9 7 7 3 3 4 3 2 3
5 3 2 4 3 4 4 4 3 4 4 4 3 3 3 3 4 5 5 4 7 4 5 3 1 2 3 4 5 6 7 7 8 10 8 8 9 9 10 10 10 10 10 11 11 10 8 5 4 5 5 5 5 5
4 2 4 7 5 5 5 5 6 5 4 5 4 3 3 4 5 4 1 4 6 5 3 1 1 4 4 5 7 7 8 8 8 9 10 9 9 10 13 14 13 13 8 10 10 11 11 8 8 9 6 7 7 5
3 4 3 2 4 4 3 4 5 5 5 5 3 4 4 5 5 3 4 4 4 4 3 2 3 4 6 7 7 7 8 8 10 10 10 11 11 11 12 14 18 13 10 13 12 12 9 11 9 9 7 6 6 5
1 3 5 5 3 3 3 2 5 4 4 3 3 5 4 3 4 3 3 3 2 1 1 2 3 4 5 6 7 7 7 8 9 10 10 11 11 9 11 10 12 20 12 14 15 13 12 8 10 9 8 7 7 5
3 3 3 2 5 4 4 4 3 3 1 2 3 3 2 4 2 2 2 2 1 2 3 3 4 4 5 6 6 6 6 7 12 18 19 15 14 11 8 10 12 11 11 14 15 15 15 9 11 8 8 7 7 5
3 4 4 4 2 3 2 1 3 3 4 3 2 2 4 4 4 2 2 1 1 2 3 4 5 6 6 7 8 8 6 7 7 9 13 15 16 15 14 14 13 12 10 11 10 8 9 10 8 8 8 8 7 6
2 2 3 4 4 6 4 5 3 2 2 1 1 3 5 3 3 3 2 1 1 3 4 4 5 6 7 7 8 9 9 7 10 15 14 13 14 15 15 15 13 11 10 11 8 8 9 9 9 11 11 10 9 7
3 4 1 3 2 4 1 2 4 5 5 6 6 4 3 2 4 4 2 1 3 3 3 4 6 7 7 7 7 8 12 11 12 12 17 14 15 17 18 16 13 10 11 9 10 10 13 12 10 11 11 12 11 9
1 1 2 3 2 3 2 3 3 4 6 7 6 6 5 1 1 4 3 2 2 3 4 6 7 7 10 10 9 8 10 11 17 19 20 22 23 22 17 9 4 7 11 10 11 11 12 14 11 12 12 12 11 9
Wind_Direction
204 206 206 202 202 203 201 197 197 195 200 204 200 191 186 180 187 212 215 206 207 225 261 279 279 272 270 254 256 248 349 238 188 236 258 258 264 267 281 285 295 306 290 279 271 267 275 22 351 344 304 302 312 321
202 201 202 200 198 199 200 197 195 193 197 198 194 188 195 184 184 198 239 210 205 235 260 300 287 276 266 271 280 283 220 262 195 234 281 321 294 306 297 288 284 281 283 280 253 293 304 294 279 300 305 306 312 322
201 198 198 195 196 195 197 196 194 192 191 191 189 188 193 187 186 194 227 184 204 292 284 251 254 250 237 246 260 263 250 248 268 285 317 288 266 284 278 281 301 304 317 310 299 288 294 298 304 302 299 312 303 293
195 194 192 192 192 194 195 195 192 190 186 183 183 184 188 193 185 193 223 201 201 319 279 294 277 274 261 208 216 235 261 271 276 275 241 250 266 268 274 291 290 294 300 287 284 294 292 301 302 300 297 294 292 294
192 190 190 187 188 191 190 193 189 184 182 181 182 184 186 187 187 198 240 237 209 216 303 308 310 272 249 207 217 238 208 234 252 251 236 252 257 266 265 271 266 270 270 273 274 284 293 294 287 291 293 314 330 322
186 183 182 180 183 186 186 186 187 184 178 178 181 182 184 184 181 176 205 228 227 215 261 278 346 274 226 204 224 234 218 210 204 217 249 253 252 261 269 272 272 286 285 293 295 293 333 320 321 328 315 306 313 317
178 176 176 176 177 181 184 181 183 178 175 178 177 180 183 182 184 220 308 330 158 121 233 272 248 206 138 70 30 9 238 128 214 251 230 251 268 237 266 269 275 288 296 285 282 317 278 297 328 324 331 336 324 323
171 171 171 172 175 177 179 182 179 173 169 171 171 176 181 185 178 152 138 107 120 129 236 261 253 230 163 141 155 167 166 168 212 236 253 248 256 230 250 254 265 265 347 286 295 339 338 329 334 340 336 338 330 322
164 166 166 170 171 174 172 170 162 156 149 140 135 127 118 180 202 163 137 153 174 233 235 221 233 165 162 150 164 181 186 200 213 211 214 220 222 221 239 247 254 273 337 337 354 345 347 345 332 342 337 331 320 317
159 162 164 166 165 165 160 150 146 145 141 137 141 163 170 187 109 113 142 178 199 207 221 252 238 224 184 175 187 189 191 225 230 208 193 211 250 247 246 256 274 315 327 8 344 338 341 337 332 331 329 327 324 316
155 158 159 161 162 155 149 146 150 146 144 145 171 174 108 142 169 181 174 204 185 222 214 219 223 234 232 194 212 222 192 228 242 192 205 214 243 233 236 204 199 208 28 1 343 351 341 333 333 333 333 326 321 322
153 157 161 159 152 150 151 151 150 144 167 163 111 119 136 184 198 199 192 191 197 227 193 196 191 199 203 180 186 244 239 246 250 137 232 254 240 142 134 97 73 59 29 354 340 327 354 346 5 340 322 320 327 315
152 152 151 150 152 155 155 154 161 146 144 145 153 153 190 169 206 207 185 198 191 207 159 151 146 161 153 164 197 248 231 241 242 216 232 245 97 50 57 83 79 73 32 11 347 343 350 351 341 325 316 316 319 314
146 149 150 152 153 155 158 161 164 148 157 179 171 163 215 177 220 203 217 208 209 193 166 156 154 152 159 172 225 229 226 253 245 225 237 81 85 131 188 159 352 27 18 340 341 330 321 315 290 293 297 305 325 320
147 149 150 154 155 157 159 160 164 165 175 170 182 204 208 232 200 216 308 100 224 126 165 158 159 187 173 204 204 228 226 237 237 269 55 111 130 56 38 20 18 10 10 335 341 335 300 309 270 289 282 288 325 316
143 144 150 154 155 155 156 152 151 85 25 238 221 218 224 194 210 143 295 259 238 191 172 184 188 213 218 204 203 206 235 240 5 51 41 38 46 33 10 1 356 328 312 316 328 321 319 319 293 292 273 223 318 306
126 100 156 153 152 149 136 101 105 183 204 219 214 251 237 213 42 186 201 234 238 209 209 211 198 217 218 230 234 279 332 47 36 29 22 16 12 359 344 335 337 328 343 343 336 321 316 311 295 301 297 164 273 290
114 139 145 148 144 142 62 199 158 177 214 221 197 168 194 221 147 181 202 215 214 215 229 234 315 249 227 248 269 132 173 174 188 256 285 296 292 289 305 312 310 339 327 306 287 277 301 305 300 294 306 324 278 229
136 140 148 144 131 134 129 138 209 200 206 182 173 147 165 194 226 243 253 278 258 277 289 254 232 237 265 290 3 9 28 82 347 311 300 298 305 315 316 318 323 312 304 299 295 290 247 277 284 288 275 346 295 305
131 143 147 139 165 131 99 129 158 300 181 165 168 176 205 230 229 221 230 239 247 241 228 235 256 279 309 326 7 339 323 337 325 306 307 323 333 327 320 310 307 306 301 297 293 287 258 254 269 278 226 238 299 302
124 158 146 98 68 30 152 172 151 193 182 170 160 181 220 210 218 224 231 228 217 236 240 234 238 246 262 297 327 300 306 325 329 327 322 316 309 295 288 283 283 279 284 292 297 294 274 243 265 285 236 148 62 285
90 98 95 77 101 185 207 199 150 142 141 150 178 209 234 213 221 227 230 230 233 234 238 254 273 319 333 311 358 345 325 320 309 291 273 283 303 311 313 314 310 301 294 297 304 304 299 281 202 242 191 173 162 249
93 48 67 85 99 122 58 195 133 164 153 190 189 207 216 218 226 227 241 249 248 247 285 9 33 18 327 317 325 321 307 304 312 311 312 313 308 303 298 298 299 295 291 287 286 284 291 273 192 187 192 195 196 212
118 80 117 119 123 104 175 165 190 190 190 206 199 213 208 196 193 219 245 245 127 108 124 103 37 314 296 289 293 324 333 321 309 298 303 312 312 305 304 299 299 296 294 301 296 293 307 292 193 191 196 175 184 228
97 82 128 125 143 139 145 173 200 188 198 216 248 210 177 203 226 239 237 235 167 155 122 109 308 294 302 304 303 304 327 319 319 308 309 308 302 295 293 290 287 285 293 292 288 293 285 265 226 206 186 192 210 229
102 149 204 169 152 163 167 176 194 207 206 204 214 206 215 235 243 246 250 83 105 110 110 86 317 303 302 312 317 318 326 332 317 296 295 303 307 301 296 294 293 286 287 287 286 286 289 280 244 208 190 192 199 179
131 145 187 254 173 169 162 184 188 183 197 189 212 202 207 213 231 101 100 38 80 76 57 18 338 313 314 316 318 326 323 312 295 291 297 290 283 278 276 279 280 284 284 278 282 286 291 299 229 199 184 195 184 163
194 142 151 182 192 188 170 246 182 204 210 202 204 192 207 242 65 53 77 113 103 37 341 299 301 310 314 323 315 305 302 300 296 291 288 285 281 283 290 292 293 288 277 265 258 260 266 290 265 185 173 182 174 164
164 158 138 189 221 217 204 208 221 217 235 239 231 245 61 58 67 106 127 129 166 248 278 309 327 323 309 298 299 295 303 311 313 311 307 304 306 301 301 295 291 288 280 284 245 238 251 241 261 175 165 160 160 141
149 172 165 146 169 239 253 286 298 20 48 29 38 156 170 140 119 119 158 175 315 350 350 325 298 297 307 308 306 305 313 310 302 304 305 300 297 302 299 293 289 280 270 274 241 235 231 232 188 140 144 142 138 140
42 171 262 220 200 225 276 61 84 129 149 211 117 289 307 98 143 168 186 95 336 286 273 297 323 316 310 318 317 314 309 305 308 306 298 295 293 292 291 287 278 271 261 255 211 226 189 157 147 154 148 144 146 154
200 229 247 224 252 115 118 244 250 243 232 218 221 208 140 222 223 127 104 225 264 286 358 326 313 315 327 313 302 300 300 310 316 310 308 301 302 298 291 286 272 240 224 214 209 162 147 145 149 146 145 147 158 155
300 80 357 335 303 269 254 240 273 273 248 246 242 199 192 217 347 94 131 65 13 329 330 325 317 311 298 301 323 326 334 317 310 308 309 311 311 309 305 282 189 165 154 139 132 135 144 144 141 139 137 140 136 132